Location: *
(50.2903°S, 172.5375°W)
Time: 18:54:25
(UTC+00:00)

Cosmos 1703 - Pass Details

Date: 17 November 2019
Orbit: 524 x 541 km, 82.5° (Epoch: 06 December)

Event Time Altitude Azimuth Distance (km) Brightness Sun altitude
Rises 14:37:02 0° 199° (SSW) 2,751 7.2 -7.7°
Reaches altitude 10° 14:39:25 10° 210° (SSW) 1,849 6.2 -7.4°
Maximum altitude 14:42:56 29° 270° (W) 1,044 4.4 -7.0°
Drops below altitude 10° 14:46:24 10° 330° (NNW) 1,823 5.4 -6.6°
Enters shadow 14:47:21 - 335° (NNW) 2,167 5.8 -6.5°
